Date String (YYYY-MM-DD hh:mm:ss) UTC,Instrument flags,Ambient pressure (hPa),Sample flow (lpm),Bypass flow (lpm),Sample temperature (°C),Ambient temperature (°C),ASC tube jacket temperature (°C),LED temperature (°C),Box temperature (°C),Sample RH (%),Span deviation,Mass concentration (μg/m³),Mass concentration (μg/m³),Mass concentration (μg/m³)
DateTimeUTC,F1_M11,P_M11,Q1_M11,Q2_M11,T1_M11,T2_M11,T3_M11,T4_M11,T5_M11,U1_M11,ZSPAN_M11,X0_M11,X2_M11,X1_M11
2022-10-01 23:00:00,,0826.6,5.00,0.00,29.8,27.9,00.0,38.5,31.6,22.5,0000.0,0003.05,0001.57,0000.90
2022-10-01 23:01:00,,0826.7,5.01,0.00,29.8,28.0,00.0,38.5,31.7,22.4,0000.0,0003.16,0001.62,0000.93
2022-10-01 23:02:00,,0826.7,5.00,0.00,29.8,28.2,00.0,38.5,31.7,22.8,0000.0,0003.28,0001.65,0000.94
2022-10-01 23:03:00,,0826.7,5.00,0.00,29.8,28.4,00.0,38.5,31.7,22.4,0000.0,0002.98,0001.59,0000.94
2022-10-01 23:04:00,,0826.7,4.99,0.00,29.8,28.5,00.0,38.5,31.7,22.2,0000.0,0002.95,0001.56,0000.94
2022-10-01 23:05:00,,0826.7,5.01,0.00,29.9,28.6,00.0,38.6,31.7,22.3,0000.0,0003.03,0001.56,0000.94
2022-10-01 23:06:00,,0826.7,4.99,0.00,29.9,28.6,00.0,38.6,31.8,22.9,0000.0,0002.92,0001.52,0000.96
2022-10-01 23:07:00,,0826.7,5.01,0.00,29.9,28.7,00.0,38.6,31.8,23.4,0000.0,0002.87,0001.51,0000.96
2022-10-01 23:08:00,,0826.7,4.99,0.00,29.9,28.8,00.0,38.6,31.9,23.7,0000.0,0002.86,0001.49,0000.96
2022-10-01 23:09:00,,0826.7,5.00,0.00,30.0,28.8,00.0,38.6,31.9,23.0,0000.0,0002.84,0001.50,0000.96
2022-10-01 23:10:00,,0826.7,4.99,0.00,30.0,28.9,00.0,38.6,31.9,22.8,0000.0,0002.90,0001.53,0000.97
2022-10-01 23:11:00,,0826.8,5.01,0.00,30.0,28.9,00.0,38.6,32.0,22.6,0000.0,0002.79,0001.49,0000.97
2022-10-01 23:12:00,,0826.7,4.99,0.00,30.0,29.0,00.0,38.7,32.0,22.1,0000.0,0002.72,0001.46,0000.96
2022-10-01 23:13:00,,0826.7,5.01,0.00,30.1,29.0,00.0,38.7,32.0,21.8,0000.0,0002.66,0001.45,0000.97
2022-10-01 23:14:00,,0826.7,4.99,0.00,30.1,29.1,00.0,38.7,32.1,21.7,0000.0,0002.74,0001.47,0000.98
2022-10-01 23:15:00,,0826.8,5.01,0.00,30.1,29.1,00.0,38.7,32.1,21.4,0000.0,0002.77,0001.49,0000.99
2022-10-01 23:16:00,,0826.8,5.00,0.00,30.2,29.1,00.0,38.8,32.1,22.0,0000.0,0002.79,0001.50,0001.01
2022-10-01 23:17:00,,0826.8,4.99,0.00,30.2,28.5,00.0,38.8,32.1,21.8,0000.0,0003.28,0001.51,0001.00
2022-10-01 23:18:00,,0826.9,5.00,0.00,30.1,27.2,00.0,38.8,32.0,21.9,0000.0,0003.42,0001.54,0001.02
2022-10-01 23:19:00,,0826.9,5.01,0.00,30.1,26.8,00.0,38.7,31.9,21.3,0000.0,0003.44,0001.56,0001.03
2022-10-01 23:20:00,,0827.1,5.01,0.00,30.0,27.0,00.0,38.7,31.8,21.6,0000.0,0003.44,0001.57,0001.03
2022-10-01 23:21:00,,0826.8,4.99,0.00,30.0,27.3,00.0,38.7,31.7,21.6,0000.0,0003.57,0001.59,0001.04
2022-10-01 23:22:00,,0826.8,4.99,0.00,29.9,27.6,00.0,38.6,31.7,21.6,0000.0,0003.59,0001.60,0001.04
2022-10-01 23:23:00,,0826.9,5.00,0.00,29.9,27.9,00.0,38.6,31.7,21.7,0000.0,0003.63,0001.59,0001.05
2022-10-01 23:24:00,,0826.9,5.01,0.00,29.9,28.1,00.0,38.6,31.7,22.5,0000.0,0003.62,0001.59,0001.06
2022-10-01 23:25:00,,0826.9,5.01,0.00,29.9,28.2,00.0,38.6,31.7,22.8,0000.0,0003.52,0001.58,0001.06
2022-10-01 23:26:00,,0827.0,4.99,0.00,29.9,28.4,00.0,38.6,31.8,23.0,0000.0,0003.54,0001.59,0001.06
2022-10-01 23:27:00,,0827.2,5.00,0.00,29.9,28.5,00.0,38.6,31.8,23.0,0000.0,0003.61,0001.60,0001.05
2022-10-01 23:28:00,,0827.2,5.00,0.00,29.9,28.6,00.0,38.6,31.9,22.5,0000.0,0003.03,0001.56,0001.05
2022-10-01 23:29:00,,0827.2,4.99,0.00,30.0,28.7,00.0,38.6,31.9,21.6,0000.0,0002.85,0001.53,0001.06
2022-10-01 23:30:00,,0827.3,5.01,0.00,30.0,28.8,00.0,38.7,31.9,21.6,0000.0,0002.75,0001.50,0001.06
2022-10-01 23:31:00,,0827.2,4.99,0.00,30.0,28.8,00.0,38.7,32.0,22.2,0000.0,0002.67,0001.48,0001.07
2022-10-01 23:32:00,,0827.1,5.00,0.00,30.0,28.9,00.0,38.7,32.0,22.1,0000.0,0002.62,0001.48,0001.07
2022-10-01 23:33:00,,0827.1,4.99,0.00,30.1,29.0,00.0,38.7,32.0,21.4,0000.0,0003.25,0001.49,0001.08
2022-10-01 23:34:00,,0827.2,5.01,0.00,30.1,29.0,00.0,38.7,32.0,21.7,0000.0,0003.40,0001.48,0001.08
2022-10-01 23:35:00,,0827.2,4.99,0.00,30.1,29.1,00.0,38.7,32.1,22.0,0000.0,0003.45,0001.49,0001.08
2022-10-01 23:36:00,,0827.2,5.01,0.00,30.1,29.1,00.0,38.8,32.1,22.0,0000.0,0003.47,0001.51,0001.08
2022-10-01 23:37:00,,0827.2,5.00,0.00,30.2,29.1,00.0,38.8,32.1,22.2,0000.0,0003.34,0001.48,0001.09
2022-10-01 23:38:00,,0827.2,5.01,0.00,30.2,29.1,00.0,38.8,32.1,22.0,0000.0,0003.22,0001.47,0001.10
2022-10-01 23:39:00,,0827.2,5.01,0.00,30.2,29.2,00.0,38.8,32.2,21.8,0000.0,0003.38,0001.55,0001.13
2022-10-01 23:40:00,,0827.3,4.99,0.00,30.3,29.1,00.0,38.8,32.2,22.2,0000.0,0003.68,0001.60,0001.15
2022-10-01 23:41:00,,0827.4,5.00,0.00,30.2,27.8,00.0,38.8,32.1,22.1,0000.0,0003.79,0001.64,0001.17
2022-10-01 23:42:00,,0827.4,5.01,0.00,30.2,26.8,00.0,38.8,32.0,22.2,0000.0,0004.40,0001.68,0001.20
2022-10-01 23:43:00,,0827.4,5.01,0.00,30.1,26.9,00.0,38.8,31.9,22.4,0000.0,0004.45,0001.71,0001.22
2022-10-01 23:44:00,,0827.4,4.99,0.00,30.0,27.1,00.0,38.7,31.7,22.4,0000.0,0003.89,0001.74,0001.24
2022-10-01 23:45:00,,0827.4,4.99,0.00,30.0,27.4,00.0,38.7,31.7,22.2,0000.0,0003.78,0001.76,0001.26
2022-10-01 23:46:00,,0827.3,5.00,0.00,30.0,27.7,00.0,38.7,31.8,22.1,0000.0,0003.71,0001.77,0001.28
2022-10-01 23:47:00,,0827.4,5.01,0.00,30.0,28.0,00.0,38.7,31.8,22.3,0000.0,0003.84,0001.78,0001.31
2022-10-01 23:48:00,,0827.4,5.01,0.00,30.0,28.2,00.0,38.7,31.8,22.4,0000.0,0004.37,0001.84,0001.35
2022-10-01 23:49:00,,0827.5,4.98,0.00,30.0,28.3,00.0,38.7,31.8,22.5,0000.0,0004.55,0001.87,0001.37
2022-10-01 23:50:00,,0827.5,5.01,0.00,30.0,28.5,00.0,38.7,31.9,22.4,0000.0,0004.69,0001.89,0001.38
2022-10-01 23:51:00,,0827.5,4.99,0.00,30.0,28.6,00.0,38.7,31.9,23.0,0000.0,0004.50,0001.91,0001.40
2022-10-01 23:52:00,,0827.5,5.00,0.00,30.0,28.7,00.0,38.7,31.9,22.9,0000.0,0004.44,0001.94,0001.41
2022-10-01 23:53:00,,0827.5,5.00,0.00,30.0,28.8,00.0,38.7,31.9,22.3,0000.0,0003.99,0001.91,0001.41
2022-10-01 23:54:00,,0827.5,4.99,0.00,30.0,28.8,00.0,38.7,32.0,21.9,0000.0,0003.92,0001.90,0001.42
2022-10-01 23:55:00,,0827.5,5.01,0.00,30.1,28.9,00.0,38.7,32.0,21.5,0000.0,0004.02,0001.96,0001.42
2022-10-01 23:56:00,,0827.5,5.00,0.00,30.1,28.9,00.0,38.7,32.0,21.8,0000.0,0004.45,0002.02,0001.43
2022-10-01 23:57:00,,0827.6,5.00,0.00,30.1,29.0,00.0,38.8,32.0,21.8,0000.0,0005.30,0002.03,0001.41
2022-10-01 23:58:00,,0827.5,4.99,0.00,30.1,29.0,00.0,38.8,32.1,22.1,0000.0,0005.14,0002.02,0001.40
2022-10-01 23:59:00,,0827.5,5.01,0.00,30.2,29.1,00.0,38.8,32.1,22.6,0000.0,0004.73,0002.00,0001.39
